Location: Unspecified
(39.9180°N, 0.0000°E)
Time: 08:50:28
(UTC+00:00)

deb r/b (DELTA) - Visible Passes

Search period start: 04 April 2026 00:00
Search period end: 14 April 2026 00:00
Orbit: 715 x 806 km, 99.1° (Epoch: 27 March)

Date Brightness Start Highest point End Pass type
(mag) Time Alt. Az. Time Alt. Az. Time Alt. Az.
6 Apr ? 18:54:38 10° SW 18:57:56 18° W 19:01:17 10° NW visible
8 Apr ? 19:19:26 10° WSW 19:20:29 11° W 19:21:32 10° WNW visible
11 Apr ? 19:01:11 10° SW 19:04:14 16° W 19:07:20 10° NW visible
